EW0734 Weather Reports


time (UTC)temp
C
wind
direction
speed
KPH
gust
KPH
rain 1hr
cm
rain 24hr
cm
rain mn
cm
humidity
%
barometer
mb
20260906075548 -17 0.0 0.0 0.00 0.00 0.00
20260906074527 -17 0.0 0.0 0.00 0.00 0.00
20260906074006 -17 0.0 0.0 0.00 0.00 0.00 49
20260906073537 20 0.0 0.0 0.00 0.00 0.00 49 1010.7
20260906072530 20 0.0 0.0 0.00 0.00 0.00 48 1010.6
20260906071529 20 0.0 0.0 0.00 0.00 0.00 48 1010.6
20260906070528 20 0.0 0.0 0.00 0.00 0.00 48 1010.7
20260906065529 20 0.0 0.0 0.00 0.00 0.00 47 1010.7
20260906064530 20 0.0 0.0 0.00 0.00 0.00 48 1010.7
20260906063530 20 0.0 0.0 0.00 0.00 0.00 48 1010.8
20260906062534 20 0.0 0.0 0.00 0.00 0.00 48 1010.8
20260906061530 20 0.0 0.0 0.00 0.00 0.00 48 1010.7
20260906060529 20 0.0 0.0 0.00 0.00 0.00 48 1010.7
20260906055530 20 0.0 0.0 0.00 0.00 0.00 48 1010.6
20260906054529 20 0.0 0.0 0.00 0.00 0.00 49 1010.8
20260906053530 20 0.0 0.0 0.00 0.00 0.00 52 1010.9
20260906052529 20 0.0 0.0 0.00 0.00 0.00 51 1011.0
20260906051529 20 0.0 0.0 0.00 0.00 0.00 50 1011.1
20260906050528 20 0.0 0.0 0.00 0.00 0.00 50 1011.0
20260906045529 21 0.0 0.0 0.00 0.00 0.00 50 1010.9
20260906044529 21 0.0 0.0 0.00 0.00 0.00 50 1011.0
20260906043529 21 0.0 0.0 0.00 0.00 0.00 50 1011.1
20260906042550 21 0.0 0.0 0.00 0.00 0.00 50 1011.2
20260906041531 21 0.0 0.0 0.00 0.00 0.00 50 1011.2
20260906040539 21 0.0 0.0 0.00 0.00 0.00 50 1011.1
20260906035529 21 0.0 0.0 0.00 0.00 0.00 52 1011.3
20260906034534 21 0.0 0.0 0.00 0.00 0.00 52 1011.3
20260906033529 21 0.0 0.0 0.00 0.00 0.00 51 1011.2
20260906032529 21 0.0 0.0 0.00 0.00 0.00 50 1011.3
20260906031529 21 0.0 0.0 0.00 0.00 0.00 51 1011.1
20260906030529 21 0.0 0.0 0.00 0.00 0.00 50 1011.2
20260906025549 21 0.0 0.0 0.00 0.00 0.00 51 1011.1
20260906024530 21 0.0 0.0 0.00 0.00 0.00 52 1011.0
20260906023528 21 0.0 0.0 0.00 0.00 0.00 53 1011.1
20260906022528 21 0.0 0.0 0.00 0.00 0.00 54 1011.1
20260906021536 21 0.0 0.0 0.00 0.00 0.00 58 1011.0
20260906020529 21 0.0 0.0 0.00 0.00 0.00 57 1010.9
20260906015529 21 0.0 0.0 0.00 0.00 0.00 55 1010.8
20260906014529 21 0.0 0.0 0.00 0.00 0.00 56 1010.9
20260906013530 21 0.0 0.0 0.00 0.00 0.00 60 1010.7
20260906012528 22 0.0 0.0 0.00 0.00 0.00 61 1010.5
20260906011528 22 0.0 0.0 0.00 0.00 0.00 58 1010.1
20260906010530 22 0.0 0.0 0.00 0.00 0.00 60 1010.2
20260906005529 22 0.0 0.0 0.00 0.00 0.00 60 1010.0
20260906004529 22 0.0 0.0 0.00 0.00 0.00 64 1010.0
20260906003529 22 0.0 0.0 0.00 0.00 0.00 64 1009.9
20260906002529 22 0.0 0.0 0.00 0.00 0.00 64 1009.7
20260906001528 22 0.0 0.0 0.00 0.00 0.00 65 1009.7
20260906000529 22 0.0 0.0 0.00 0.00 0.00 66 1009.6
20260905235530 22 0.0 0.0 0.00 0.00 0.00 69 1009.6
20260905234528 22 0.0 0.0 0.00 0.00 0.00 71 1009.7
20260905233529 23 0.0 0.0 0.00 0.00 0.00 73 1009.8
20260905232530 23 0.0 0.0 0.00 0.00 0.00 73 1009.8
20260905231530 23 0.0 0.0 0.00 0.00 0.00 77 1009.6
20260905230528 23 0.0 0.0 0.00 0.00 0.00 82 1009.6
20260905225529 23 0.0 0.0 0.00 0.00 0.00 76 1009.4
20260905224528 23 0.0 0.0 0.00 0.00 0.00 75 1009.6
20260905223528 23 0.0 0.0 0.00 0.00 0.00 76 1009.6
20260905222530 24 0.0 0.0 0.00 0.00 0.00 77 1009.5
20260905221528 24 0.0 0.0 0.00 0.00 0.00 79 1009.4
20260905220530 23 0.0 0.0 0.00 0.00 0.00 79 1009.4
20260905215529 23 0.0 0.0 0.00 0.00 0.00 85 1009.2
20260905214528 24 0.0 0.0 0.00 0.00 0.00 85 1009.0
20260905213529 23 0.0 0.0 0.00 0.00 0.00 87 1009.2
20260905212528 23 0.0 0.0 0.00 0.00 0.00 92 1009.3
20260905211529 24 0.0 0.0 0.00 0.00 0.00 92 1009.1
20260905210528 24 0.0 0.0 0.00 0.00 0.00 92 1009.2
20260905205648 24 0.0 0.0 0.00 0.00 0.00 92 1009.0
20260905204609 24 0.0 0.0 0.00 0.00 0.00 92 1009.1
20260905203528 24 0.0 0.0 0.00 0.00 0.00 92 1009.1
20260905202528 23 0.0 0.0 0.00 0.00 0.00 91 1009.1
20260905201528 23 0.0 0.0 0.00 0.00 0.00 91 1009.2
20260905200550 24 0.0 0.0 0.00 0.00 0.00 92 1009.2
20260905195528 24 0.0 0.0 0.00 0.00 0.00 92 1009.2
20260905194528 25 0.0 0.0 0.00 0.00 0.00 92 1009.3
20260905193551 25 0.0 0.0 0.00 0.00 0.00 92 1009.5
20260905192530 24 0.0 0.0 0.00 0.00 0.00 92 1009.6
20260905191529 24 0.0 0.0 0.00 0.00 0.00 92 1009.6
20260905190529 24 0.0 0.0 0.00 0.00 0.00 90 1009.6
20260905185549 23 0.0 0.0 0.00 0.00 0.00 91 1009.7
20260905184528 23 0.0 0.0 0.00 0.00 0.00 89 1009.9
20260905183530 23 0.0 0.0 0.00 0.00 0.00 86 1010.2
20260905182530 23 0.0 0.0 0.00 0.00 0.00 77 1010.0
20260905181550 23 0.0 0.0 0.00 0.00 0.00 81 1009.9
20260905180530 23 0.0 0.0 0.00 0.00 0.00 85 1009.6
20260905175531 23 0.0 0.0 0.00 0.00 0.00 85 1009.4
20260905174528 23 0.0 0.0 0.00 0.00 0.00 85 1009.3
20260905173529 23 0.0 0.0 0.00 0.00 0.00 83 1009.3
20260905172530 22 0.0 0.0 0.00 0.00 0.00 82 1009.7
20260905171529 22 0.0 0.0 0.00 0.00 0.00 87 1010.0
20260905170529 22 0.0 0.0 0.00 0.00 0.00 91 1010.0
20260905165529 22 0.0 0.0 0.00 0.00 0.00 92 1010.5
20260905164530 23 0.0 0.0 0.00 0.00 0.00 91 1011.0
20260905163530 24 0.0 0.0 0.00 0.00 0.00 88 1012.2
20260905162529 25 0.0 0.0 0.00 0.00 0.00 87 1011.8
20260905161529 25 0.0 0.0 0.00 0.00 0.00 84 1011.4
20260905160529 25 0.0 0.0 0.00 0.00 0.00 83 1011.4
20260905155554 26 0.0 0.0 0.00 0.00 0.00 83 1011.3
20260905154529 26 0.0 0.0 0.00 0.00 0.00 82 1011.2
20260905153550 26 0.0 0.0 0.00 0.00 0.00 82 1010.9
20260905152549 26 0.0 0.0 0.00 0.00 0.00 82 1010.8
20260905151530 26 0.0 0.0 0.00 0.00 0.00 81 1011.0
20260905150530 26 0.0 0.0 0.00 0.00 0.00 81 1011.1
20260905145529 26 0.0 0.0 0.00 0.00 0.00 82 1011.0
20260905144533 26 0.0 0.0 0.00 0.00 0.00 83 1011.2
20260905143530 26 0.0 0.0 0.00 0.00 0.00 83 1011.2
20260905142550 26 0.0 0.0 0.00 0.00 0.00 83 1011.1
20260905141529 26 0.0 0.0 0.00 0.00 0.00 83 1011.0
20260905140529 26 0.0 0.0 0.00 0.00 0.00 83 1010.9
20260905135529 26 0.0 0.0 0.00 0.00 0.00 83 1010.7
20260905134529 26 0.0 0.0 0.00 0.00 0.00 86 1010.5
20260905133549 25 0.0 0.0 0.00 0.00 0.00 84 1010.4
20260905132529 25 0.0 0.0 0.00 0.00 0.00 87 1010.4
20260905131530 23 0.0 0.0 0.00 0.00 0.00 92 1010.5
20260905130530 23 0.0 0.0 0.00 0.00 0.00 91 1010.5
20260905125530 22 0.0 0.0 0.00 0.00 0.00 85 1010.4
20260905124530 22 0.0 0.0 0.00 0.00 0.00 76 1010.4
20260905123529 22 0.0 0.0 0.00 0.00 0.00 69 1010.3
20260905122530 22 0.0 0.0 0.00 0.00 0.00 56 1010.2
20260905121609 21 0.0 0.0 0.00 0.00 0.00 50 1010.3
20260905120530 21 0.0 0.0 0.00 0.00 0.00 52 1010.4
20260905115529 20 0.0 0.0 0.00 0.00 0.00 55 1010.3
20260905114528 -17 0.0 0.0 0.00 0.00 0.00
20260905113528 -17 0.0 0.0 0.00 0.00 0.00
20260905113025 -17 0.0 0.0 0.00 0.00 0.00
20260905112618 -17 0.0 0.0 0.00 0.00 0.00
20260905112027 -17 0.0 0.0 0.00 0.00 0.00
20260905111028 -17 0.0 0.0 0.00 0.00 0.00
20260905110507 -17 0.0 0.0 0.00 0.00 0.00
20260905110054 -17 0.0 0.0 0.00 0.00 0.00
20260905105528 -17 0.0 0.0 0.00 0.00 0.00
20260905104528 -17 0.0 0.0 0.00 0.00 0.00
20260905104121 -17 0.0 0.0 0.00 0.00 0.00
20260905103532 -17 0.0 0.0 0.00 0.00 0.00
20260905103028 -17 0.0 0.0 0.00 0.00 0.00
20260905102027 -17 0.0 0.0 0.00 0.00 0.00
20260905101505 -17 0.0 0.0 0.00 0.00 0.00
20260905100527 -17 0.0 0.0 0.00 0.00 0.00
20260905095527 -17 0.0 0.0 0.00 0.00 0.00
20260905095059 -17 0.0 0.0 0.00 0.00 0.00
20260905094527 -17 0.0 0.0 0.00 0.00 0.00
20260905094027 -17 0.0 0.0 0.00 0.00 0.00
20260905093028 -17 0.0 0.0 0.00 0.00 0.00
20260905092522 -17 0.0 0.0 0.00 0.00 0.00
20260905092048 -17 0.0 0.0 0.00 0.00 0.00
20260905091527 -17 0.0 0.0 0.00 0.00 0.00
20260905090547 -17 0.0 0.0 0.00 0.00 0.00
20260905090030 -17 0.0 0.0 0.00 0.00 0.00
20260905085528 -17 0.0 0.0 0.00 0.00 0.00
20260905085047 -17 0.0 0.0 0.00 0.00 0.00
20260905084028 -17 0.0 0.0 0.00 0.00 0.00
20260905083619 -17 0.0 0.0 0.00 0.00 0.00
20260905082527 -17 0.0 0.0 0.00 0.00 0.00
20260905081528 -17 0.0 0.0 0.00 0.00 0.00
20260905081008 -17 0.0 0.0 0.00 0.00 0.00
20260905080028 -17 0.0 0.0 0.00 0.00 0.00